Newton, KS

9:58 PM CDT on April 26, 2017 (GMT -0500)
Newton City County

Weather History for KEWK - October, 2011

Change the Weather History Date:

Wednesday, October 12, 2011

  Actual Average Record
Temperature  
Mean Temperature 60 °F -  
Max Temperature 64 °F 66 °F 84 °F (1999)
Min Temperature 55 °F 45 °F 39 °F (2006)
Degree Days  
Heating Degree Days 6    
Growing Degree Days 10 (Base 50)    
Moisture  
Dew Point 54 °F    
Average Humidity 80    
Maximum Humidity 94    
Minimum Humidity 68    
Precipitation  
Precipitation 0.15 in - - ()
Sea Level Pressure  
Sea Level Pressure 29.77 in    
Wind  
Wind Speed 10 mph (SSW)    
Max Wind Speed 15 mph    
Max Gust Speed -    
Visibility 10 miles    
Events Thunderstorm    
Averages and records for this station are not official NWS values.
T = Trace of Precipitation, MM = Missing Value Source: NWS Daily Summary

Daily Weather History Graph

Daily Weather History Graph

Search for Another Location

Airport or City:

Trip Planner

Search our weather history database for the weather conditions in past years. The results will help you decide how hot, cold, wet, or windy it might be!

Date:

Astronomy

Oct. 12, 2011 Rise Set
Actual Time 7:34 AM CDT 6:55 PM CDT
Civil Twilight 7:08 AM CDT 7:22 PM CDT
Nautical Twilight 6:37 AM CDT 7:52 PM CDT
Astronomical Twilight 6:07 AM CDT 8:23 PM CDT
Moon 7:00 PM CDT (10/12) 8:09 AM CDT (10/12)
Length of Visible Light 12h 14m
Length of Day
11h 21m
Full, 100% of the Moon is Illuminated
Oct 12
Full
Oct 19
Last Quarter
Oct 26
New
Nov 2
First Quarter
Nov 10
Full

Hourly Weather History & Observations

Time (CDT) Temp. Dew Point Humidity Pressure Visibility Wind Dir Wind Speed Gust Speed Precip Events Conditions
12:15 AM 62.6 °F 53.6 °F 72% 29.79 in 10.0 mi SSE 10.4 mph - N/A Thunderstorm Thunderstorm
12:35 AM 64.4 °F 53.6 °F 68% 29.80 in 10.0 mi West 6.9 mph - N/A Thunderstorm Thunderstorm
12:55 AM 64.4 °F 53.6 °F 68% 29.78 in 10.0 mi SE 5.8 mph - N/A Thunderstorm Thunderstorm
1:15 AM 62.6 °F 53.6 °F 72% 29.78 in 7.0 mi South 9.2 mph - 0.12 in Thunderstorm Thunderstorm
1:35 AM 62.6 °F 55.4 °F 77% 29.77 in 10.0 mi SSE 9.2 mph - 0.15 in Thunderstorm Thunderstorm
1:55 AM 62.6 °F 55.4 °F 77% 29.77 in 10.0 mi SSE 9.2 mph - 0.15 in Thunderstorm Thunderstorm
2:35 AM 60.8 °F 55.4 °F 82% 29.77 in 10.0 mi South 8.1 mph - N/A   Mostly Cloudy
2:55 AM 60.8 °F 55.4 °F 82% 29.77 in 10.0 mi SSW 10.4 mph - N/A   Overcast
3:15 AM 62.6 °F 55.4 °F 77% 29.77 in 10.0 mi SSW 13.8 mph - N/A   Overcast
3:55 AM 60.8 °F 53.6 °F 77% 29.76 in 10.0 mi SSW 15.0 mph - N/A   Clear
4:15 AM 60.8 °F 53.6 °F 77% 29.76 in 10.0 mi SSW 15.0 mph - N/A   Clear
4:35 AM 60.8 °F 53.6 °F 77% 29.76 in 10.0 mi WSW 11.5 mph - N/A   Clear
4:55 AM 60.8 °F 53.6 °F 77% 29.77 in 10.0 mi SW 11.5 mph - N/A   Clear
5:35 AM 59.0 °F 53.6 °F 82% 29.78 in 10.0 mi West 12.7 mph - N/A   Clear
5:55 AM 57.2 °F 53.6 °F 88% 29.77 in 10.0 mi WSW 11.5 mph - N/A   Clear
6:35 AM 57.2 °F 53.6 °F 88% 29.77 in 10.0 mi WSW 10.4 mph - N/A   Clear
6:55 AM 57.2 °F 53.6 °F 88% 29.77 in 10.0 mi WSW 10.4 mph - N/A   Clear
7:15 AM 55.4 °F 53.6 °F 94% 29.77 in 10.0 mi WSW 9.2 mph - N/A   Clear
7:35 AM 55.4 °F 53.6 °F 94% 29.77 in 9.0 mi WSW 10.4 mph - N/A   Clear